CSN6059 ZGGG-VDPP

Flight info

Callsign CSN6059
Flight time 2h 17m
Altitude 24600
Route VIBOS9 VIBOS R473 SIERA/N0481F390 DCT MULET/N0482F400 DCT ALLEY V31 IDOSI A1 IKELA/K0893F400 A1 DAN/K0820F280 W1 PLK R588 GONLY/N0443F280 DETMA3A
Aircraft A359/H-SDE2E3GHIJ3J4J5LM1ORWXY/LB1D1

Departure

Time 2026-05-05 13:31
Airport Guangzhou Baiyun International Airport (ZGGG)

Arrival

Time 2026-05-05 15:48
Airport Phnom Penh International Airport (VDPP)
Time Latitude Longitude Altitude Speed Heading
2026-05-05 12:54 23.39997 113.30450 65 ft 0 kts 284°
2026-05-05 13:20 23.39996 113.30451 65 ft 1 kts 284°
2026-05-05 13:20 23.39993 113.30466 65 ft 3 kts 284°
2026-05-05 13:20 23.39988 113.30487 65 ft 3 kts 284°
2026-05-05 13:20 23.39983 113.30509 55 ft 3 kts 284°
2026-05-05 13:21 23.39978 113.30530 65 ft 3 kts 280°
2026-05-05 13:21 23.39976 113.30551 59 ft 3 kts 266°
2026-05-05 13:21 23.39979 113.30573 65 ft 3 kts 251°
2026-05-05 13:21 23.39986 113.30591 65 ft 4 kts 238°
2026-05-05 13:24 23.39974 113.30571 65 ft 6 kts 232°
2026-05-05 13:24 23.39930 113.30549 60 ft 8 kts 179°
2026-05-05 13:24 23.39891 113.30590 57 ft 9 kts 112°
2026-05-05 13:24 23.39872 113.30666 62 ft 12 kts 104°
2026-05-05 13:25 23.39843 113.30734 56 ft 8 kts 148°
2026-05-05 13:25 23.39782 113.30731 57 ft 10 kts 184°
2026-05-05 13:25 23.39747 113.30775 57 ft 9 kts 105°
2026-05-05 13:25 23.39693 113.30805 60 ft 11 kts 190°
2026-05-05 13:26 23.39607 113.30783 57 ft 14 kts 194°
2026-05-05 13:26 23.39503 113.30755 57 ft 17 kts 194°
2026-05-05 13:26 23.39381 113.30722 61 ft 19 kts 194°
2026-05-05 13:26 23.39245 113.30685 58 ft 21 kts 194°
2026-05-05 13:27 23.39097 113.30645 58 ft 23 kts 194°
2026-05-05 13:27 23.38937 113.30603 58 ft 24 kts 194°
2026-05-05 13:27 23.38769 113.30557 58 ft 26 kts 194°
2026-05-05 13:27 23.38591 113.30509 55 ft 27 kts 194°
2026-05-05 13:28 23.38406 113.30460 60 ft 28 kts 194°
2026-05-05 13:28 23.38213 113.30407 57 ft 29 kts 194°
2026-05-05 13:28 23.38013 113.30352 61 ft 30 kts 194°
2026-05-05 13:28 23.37815 113.30299 59 ft 24 kts 194°
2026-05-05 13:29 23.37682 113.30265 56 ft 15 kts 186°
2026-05-05 13:29 23.37633 113.30313 55 ft 10 kts 107°
2026-05-05 13:29 23.37608 113.30420 57 ft 17 kts 104°
2026-05-05 13:29 23.37592 113.30517 58 ft 10 kts 78°
2026-05-05 13:30 23.37652 113.30556 58 ft 16 kts 17°
2026-05-05 13:30 23.37953 113.30638 58 ft 79 kts 14°
2026-05-05 13:30 23.38698 113.30839 60 ft 142 kts 14°
2026-05-05 13:30 23.39843 113.31146 283 ft 178 kts 14°
2026-05-05 13:31 23.40980 113.31492 1126 ft 170 kts 18°
2026-05-05 13:31 23.42146 113.31909 1681 ft 185 kts 21°
2026-05-05 13:31 23.43456 113.32401 1949 ft 217 kts 21°
2026-05-05 13:31 23.44985 113.32925 2364 ft 238 kts 18°
2026-05-05 13:32 23.46610 113.33405 3122 ft 244 kts 15°
2026-05-05 13:32 23.47620 113.33687 3568 ft 248 kts 14°
2026-05-05 13:32 23.49307 113.34144 4370 ft 249 kts 13°
2026-05-05 13:33 23.50999 113.34584 5183 ft 252 kts 12°
2026-05-05 13:33 23.52717 113.35041 5927 ft 257 kts 13°
2026-05-05 13:33 23.54481 113.35524 6621 ft 266 kts 12°
2026-05-05 13:33 23.56281 113.36024 7416 ft 267 kts 13°
2026-05-05 13:34 23.58105 113.36432 8309 ft 266 kts
2026-05-05 13:34 23.59945 113.36676 9202 ft 266 kts
2026-05-05 13:34 23.61710 113.36244 10024 ft 260 kts 327°
2026-05-05 13:34 23.63034 113.34930 10683 ft 263 kts 304°
2026-05-05 13:35 23.63770 113.33064 10986 ft 282 kts 281°
2026-05-05 13:35 23.64082 113.30879 11340 ft 302 kts 277°
2026-05-05 13:35 23.64352 113.28538 11673 ft 321 kts 277°
2026-05-05 13:35 23.64653 113.26087 11970 ft 330 kts 277°
2026-05-05 13:36 23.64974 113.23586 12368 ft 335 kts 278°
2026-05-05 13:36 23.65308 113.21060 12784 ft 338 kts 278°
2026-05-05 13:36 23.65474 113.18491 13196 ft 341 kts 268°
2026-05-05 13:36 23.65010 113.15947 13628 ft 345 kts 251°
2026-05-05 13:37 23.63816 113.13667 14033 ft 351 kts 233°
2026-05-05 13:37 23.62121 113.11732 14365 ft 355 kts 226°
2026-05-05 13:37 23.60308 113.09920 14693 ft 360 kts 223°
2026-05-05 13:37 23.58162 113.08469 15015 ft 369 kts 205°
2026-05-05 13:38 23.55634 113.07866 15409 ft 376 kts 186°
2026-05-05 13:38 23.53004 113.07820 15762 ft 381 kts 182°
2026-05-05 13:38 23.50340 113.07863 16113 ft 384 kts 182°
2026-05-05 13:38 23.47665 113.07904 16487 ft 385 kts 182°
2026-05-05 13:39 23.44976 113.07945 16877 ft 388 kts 182°
2026-05-05 13:39 23.42273 113.07969 17203 ft 390 kts 182°
2026-05-05 13:39 23.39546 113.07986 17539 ft 393 kts 182°
2026-05-05 13:39 23.36806 113.08002 17884 ft 395 kts 182°
2026-05-05 13:40 23.34054 113.08017 18226 ft 397 kts 183°
2026-05-05 13:40 23.31279 113.08032 18526 ft 399 kts 183°
2026-05-05 13:40 23.28528 113.08053 18824 ft 402 kts 182°
2026-05-05 13:40 23.25738 113.08407 19099 ft 408 kts 168°
2026-05-05 13:41 23.23043 113.09440 19405 ft 413 kts 160°
2026-05-05 13:41 23.20387 113.10655 19706 ft 415 kts 160°
2026-05-05 13:41 23.17730 113.11884 20010 ft 416 kts 160°
2026-05-05 13:41 23.15056 113.13116 20304 ft 419 kts 160°
2026-05-05 13:42 23.12366 113.14348 20614 ft 420 kts 161°
2026-05-05 13:42 23.09661 113.15583 20909 ft 422 kts 161°
2026-05-05 13:42 23.06928 113.16781 21157 ft 423 kts 167°
2026-05-05 13:42 23.04184 113.17978 21400 ft 427 kts 160°
2026-05-05 13:43 23.01453 113.19249 21718 ft 428 kts 160°
2026-05-05 13:43 22.98653 113.20343 22005 ft 427 kts 166°
2026-05-05 13:43 22.95808 113.21297 22287 ft 429 kts 167°
2026-05-05 13:43 22.92950 113.22252 22567 ft 431 kts 166°
2026-05-05 13:44 22.90076 113.23226 22841 ft 433 kts 167°
2026-05-05 13:44 22.87203 113.24209 23151 ft 434 kts 167°
2026-05-05 13:44 22.84353 113.25193 23431 ft 436 kts 167°
2026-05-05 13:44 22.81457 113.26193 23679 ft 438 kts 167°
2026-05-05 13:45 22.78552 113.27198 23885 ft 440 kts 167°
2026-05-05 13:45 22.75628 113.28209 24092 ft 442 kts 167°
2026-05-05 13:45 22.72693 113.29226 24300 ft 444 kts 167°
2026-05-05 13:45 22.69737 113.30249 24508 ft 446 kts 167°
2026-05-05 13:46 22.66766 113.31278 24706 ft 448 kts 167°
2026-05-05 13:46 22.64794 113.31960 24838 ft 449 kts 167°
2026-05-05 13:46 22.61796 113.32999 25026 ft 452 kts 167°
2026-05-05 13:46 22.58802 113.34043 25215 ft 453 kts 167°
2026-05-05 13:47 22.55802 113.35081 25525 ft 452 kts 167°
2026-05-05 13:47 22.51820 113.36452 25775 ft 455 kts 167°
2026-05-05 13:47 22.49778 113.37154 25898 ft 457 kts 167°
2026-05-05 13:47 22.46744 113.38197 26089 ft 459 kts 167°
2026-05-05 13:48 22.43694 113.39245 26273 ft 461 kts 167°
2026-05-05 13:48 22.40620 113.40303 26486 ft 463 kts 167°
2026-05-05 13:48 22.37545 113.41361 26682 ft 466 kts 167°
2026-05-05 13:48 22.34481 113.42416 26882 ft 468 kts 167°
2026-05-05 13:49 22.31331 113.43501 27110 ft 470 kts 167°
2026-05-05 13:49 22.28254 113.44562 27307 ft 471 kts 167°
2026-05-05 13:49 22.25124 113.45641 27604 ft 472 kts 168°
2026-05-05 13:49 22.21983 113.46723 27859 ft 474 kts 168°
2026-05-05 13:50 22.18844 113.47829 28047 ft 477 kts 167°
2026-05-05 13:50 22.15677 113.48985 28268 ft 480 kts 166°
2026-05-05 13:50 22.12514 113.50159 28496 ft 483 kts 166°
2026-05-05 13:50 22.09322 113.51344 28735 ft 485 kts 166°
2026-05-05 13:51 22.06121 113.52528 28938 ft 487 kts 166°
2026-05-05 13:51 22.02908 113.53712 29154 ft 490 kts 167°
2026-05-05 13:51 21.99689 113.54948 29364 ft 495 kts 163°
2026-05-05 13:51 21.96613 113.56549 29586 ft 501 kts 157°
2026-05-05 13:52 21.93527 113.58338 29870 ft 502 kts 156°
2026-05-05 13:52 21.90471 113.60174 30169 ft 505 kts 155°
2026-05-05 13:52 21.87411 113.62044 30398 ft 508 kts 155°
2026-05-05 13:52 21.84376 113.63911 30625 ft 509 kts 155°
2026-05-05 13:53 21.81295 113.65807 30860 ft 511 kts 155°
2026-05-05 13:53 21.78205 113.67701 31096 ft 512 kts 155°
2026-05-05 13:53 21.75105 113.69597 31330 ft 514 kts 155°
2026-05-05 13:53 21.71991 113.71496 31566 ft 515 kts 155°
2026-05-05 13:54 21.68865 113.73399 31793 ft 517 kts 155°
2026-05-05 13:54 21.65732 113.75305 32032 ft 518 kts 155°
2026-05-05 13:54 21.62578 113.77172 32262 ft 516 kts 158°
2026-05-05 13:54 21.59270 113.78615 32493 ft 510 kts 168°
2026-05-05 13:55 21.55827 113.79435 32690 ft 504 kts 179°
2026-05-05 13:55 21.52345 113.79653 32889 ft 500 kts 185°
2026-05-05 13:55 21.48863 113.79661 33087 ft 500 kts 186°
2026-05-05 13:55 21.45379 113.79582 33294 ft 501 kts 187°
2026-05-05 13:56 21.41927 113.79470 33474 ft 503 kts 187°
2026-05-05 13:56 21.38424 113.79351 33681 ft 505 kts 187°
2026-05-05 13:56 21.34906 113.79240 33873 ft 507 kts 187°
2026-05-05 13:56 21.31373 113.79138 34026 ft 508 kts 187°
2026-05-05 13:57 21.27834 113.79046 34230 ft 509 kts 187°
2026-05-05 13:57 21.24279 113.78960 34407 ft 510 kts 187°
2026-05-05 13:57 21.20723 113.78875 34580 ft 512 kts 186°
2026-05-05 13:57 21.17162 113.78792 34815 ft 512 kts 186°
2026-05-05 13:58 21.13593 113.78680 35067 ft 509 kts 189°
2026-05-05 13:58 21.10109 113.78188 35297 ft 502 kts 197°
2026-05-05 13:58 21.06780 113.77154 35513 ft 494 kts 207°
2026-05-05 13:58 21.03678 113.75628 35748 ft 489 kts 212°
2026-05-05 13:59 20.97707 113.72164 36268 ft 487 kts 214°
2026-05-05 13:59 20.94802 113.70398 36500 ft 487 kts 215°
2026-05-05 14:00 20.88903 113.66803 36967 ft 487 kts 214°
2026-05-05 14:00 20.85958 113.65022 37210 ft 487 kts 214°
2026-05-05 14:00 20.83005 113.63245 37447 ft 487 kts 214°
2026-05-05 14:00 20.80050 113.61476 37664 ft 487 kts 214°
2026-05-05 14:01 20.77096 113.59712 37877 ft 487 kts 214°
2026-05-05 14:01 20.74132 113.57943 38097 ft 487 kts 214°
2026-05-05 14:01 20.71171 113.56176 38281 ft 487 kts 214°
2026-05-05 14:01 20.68208 113.54411 38474 ft 488 kts 214°
2026-05-05 14:02 20.65245 113.52645 38685 ft 488 kts 214°
2026-05-05 14:02 20.62277 113.50877 38872 ft 488 kts 214°
2026-05-05 14:02 20.59319 113.49115 39063 ft 487 kts 214°
2026-05-05 14:02 20.56395 113.47374 39248 ft 487 kts 214°
2026-05-05 14:03 20.53432 113.45610 39423 ft 486 kts 214°
2026-05-05 14:03 20.50484 113.43856 39592 ft 486 kts 213°
2026-05-05 14:03 20.47525 113.42096 39764 ft 486 kts 213°
2026-05-05 14:03 20.44570 113.40339 39895 ft 486 kts 213°
2026-05-05 14:04 20.38645 113.36819 39977 ft 487 kts 213°
2026-05-05 14:04 20.32733 113.33310 39976 ft 486 kts 213°
2026-05-05 14:05 20.26819 113.29804 39975 ft 486 kts 213°
2026-05-05 14:05 20.20901 113.26297 39974 ft 486 kts 213°
2026-05-05 14:06 20.14984 113.22795 39967 ft 486 kts 213°
2026-05-05 14:06 20.09102 113.19316 39969 ft 486 kts 213°
2026-05-05 14:07 20.03183 113.15818 39976 ft 487 kts 213°
2026-05-05 14:07 19.97268 113.12326 39967 ft 486 kts 213°
2026-05-05 14:08 19.91340 113.08829 39966 ft 487 kts 213°
2026-05-05 14:08 19.85418 113.05339 39969 ft 486 kts 213°
2026-05-05 14:09 19.79507 113.01859 39966 ft 485 kts 213°
2026-05-05 14:09 19.73599 112.98383 39968 ft 485 kts 213°
2026-05-05 14:10 19.67693 112.94911 39968 ft 485 kts 213°
2026-05-05 14:10 19.61786 112.91442 39965 ft 485 kts 213°
2026-05-05 14:11 19.55869 112.87969 39961 ft 484 kts 213°
2026-05-05 14:11 19.50023 112.84542 39963 ft 483 kts 213°
2026-05-05 14:12 19.44139 112.81095 39966 ft 483 kts 213°
2026-05-05 14:12 19.38261 112.77653 39962 ft 483 kts 213°
2026-05-05 14:13 19.32388 112.74190 39955 ft 481 kts 215°
2026-05-05 14:13 19.26863 112.70237 39962 ft 479 kts 219°
2026-05-05 14:14 19.21431 112.66157 39962 ft 478 kts 219°
2026-05-05 14:14 19.16046 112.62083 39961 ft 478 kts 219°
2026-05-05 14:15 19.10629 112.57995 39960 ft 478 kts 219°
2026-05-05 14:15 19.05202 112.53913 39960 ft 478 kts 219°
2026-05-05 14:16 18.99776 112.49839 39956 ft 479 kts 219°
2026-05-05 14:16 18.94349 112.45758 39958 ft 480 kts 219°
2026-05-05 14:17 18.88919 112.41651 39956 ft 480 kts 219°
2026-05-05 14:17 18.83488 112.37548 39958 ft 480 kts 219°
2026-05-05 14:18 18.78056 112.33454 39955 ft 480 kts 219°
2026-05-05 14:18 18.72621 112.29362 39950 ft 480 kts 219°
2026-05-05 14:19 18.67331 112.25103 39956 ft 476 kts 226°
2026-05-05 14:19 18.63179 112.19809 39955 ft 470 kts 238°
2026-05-05 14:20 18.59510 112.14107 39955 ft 470 kts 239°
2026-05-05 14:20 18.55919 112.08348 39955 ft 470 kts 239°
2026-05-05 14:21 18.52308 112.02589 39955 ft 471 kts 239°
2026-05-05 14:21 18.48676 111.96841 39955 ft 471 kts 239°
2026-05-05 14:22 18.45036 111.91102 39953 ft 471 kts 239°
2026-05-05 14:22 18.41416 111.85400 39952 ft 471 kts 239°
2026-05-05 14:23 18.37770 111.79659 39959 ft 472 kts 238°
2026-05-05 14:23 18.34117 111.73913 39955 ft 472 kts 238°
2026-05-05 14:24 18.30459 111.68165 39954 ft 472 kts 238°
2026-05-05 14:24 18.26829 111.62465 39954 ft 472 kts 238°
2026-05-05 14:25 18.23170 111.56723 39956 ft 472 kts 238°
2026-05-05 14:25 18.19517 111.50998 39947 ft 472 kts 238°
2026-05-05 14:26 18.15855 111.45262 39955 ft 472 kts 238°
2026-05-05 14:26 18.12194 111.39533 39954 ft 472 kts 238°
2026-05-05 14:27 18.08528 111.33802 39956 ft 472 kts 238°
2026-05-05 14:27 18.04885 111.28112 39954 ft 472 kts 238°
2026-05-05 14:28 18.01215 111.22384 39955 ft 472 kts 238°
2026-05-05 14:28 17.97549 111.16667 39960 ft 472 kts 238°
2026-05-05 14:29 17.93873 111.10941 39954 ft 472 kts 238°
2026-05-05 14:29 17.90206 111.05233 39953 ft 471 kts 238°
2026-05-05 14:30 17.86537 110.99528 39952 ft 471 kts 238°
2026-05-05 14:30 17.82868 110.93827 39970 ft 471 kts 238°
2026-05-05 14:31 17.79197 110.88127 39948 ft 471 kts 238°
2026-05-05 14:31 17.75544 110.82460 39950 ft 471 kts 238°
2026-05-05 14:32 17.71872 110.76770 39963 ft 471 kts 238°
2026-05-05 14:32 17.68201 110.71085 39953 ft 470 kts 238°
2026-05-05 14:33 17.64527 110.65399 39949 ft 470 kts 238°
2026-05-05 14:33 17.60854 110.59721 39964 ft 470 kts 238°
2026-05-05 14:34 17.57799 110.55002 39966 ft 470 kts 238°
2026-05-05 14:34 17.54121 110.49326 39953 ft 470 kts 238°
2026-05-05 14:35 17.49850 110.42739 39950 ft 470 kts 238°
2026-05-05 14:35 17.46794 110.38031 39966 ft 469 kts 238°
2026-05-05 14:36 17.43120 110.32374 39961 ft 469 kts 238°
2026-05-05 14:36 17.39456 110.26722 39960 ft 469 kts 238°
2026-05-05 14:37 17.35829 110.21045 39954 ft 469 kts 238°
2026-05-05 14:37 17.32205 110.15366 39955 ft 470 kts 238°
2026-05-05 14:38 17.28586 110.09712 39957 ft 470 kts 238°
2026-05-05 14:38 17.24943 110.04032 39954 ft 470 kts 238°
2026-05-05 14:39 17.21296 109.98354 39957 ft 470 kts 238°
2026-05-05 14:39 17.17645 109.92673 39942 ft 470 kts 238°
2026-05-05 14:40 17.13998 109.87003 39951 ft 470 kts 238°
2026-05-05 14:40 17.10369 109.81365 39955 ft 470 kts 238°
2026-05-05 14:41 17.06716 109.75695 39950 ft 470 kts 238°
2026-05-05 14:41 17.03063 109.70029 39954 ft 470 kts 238°
2026-05-05 14:42 16.99412 109.64371 39951 ft 470 kts 238°
2026-05-05 14:42 16.95752 109.58704 39953 ft 470 kts 238°
2026-05-05 14:43 16.92113 109.53074 39948 ft 470 kts 238°
2026-05-05 14:43 16.88463 109.47432 39947 ft 470 kts 238°
2026-05-05 14:44 16.84797 109.41769 39950 ft 470 kts 238°
2026-05-05 14:44 16.81136 109.36118 39952 ft 470 kts 238°
2026-05-05 14:45 16.77482 109.30470 39953 ft 470 kts 238°
2026-05-05 14:45 16.73821 109.24812 39951 ft 470 kts 238°
2026-05-05 14:46 16.70157 109.19158 39956 ft 470 kts 238°
2026-05-05 14:46 16.66497 109.13516 39954 ft 470 kts 238°
2026-05-05 14:47 16.62860 109.07913 39957 ft 469 kts 238°
2026-05-05 14:47 16.59201 109.02282 39951 ft 469 kts 238°
2026-05-05 14:48 16.55539 108.96650 39950 ft 469 kts 238°
2026-05-05 14:48 16.51832 108.91048 39950 ft 469 kts 237°
2026-05-05 14:49 16.48101 108.85472 39948 ft 469 kts 237°
2026-05-05 14:49 16.44393 108.79926 39941 ft 469 kts 237°
2026-05-05 14:50 16.40670 108.74350 39944 ft 469 kts 237°
2026-05-05 14:50 16.36948 108.68774 39940 ft 468 kts 237°
2026-05-05 14:51 16.33237 108.63189 39943 ft 468 kts 238°
2026-05-05 14:51 16.29638 108.57585 39945 ft 468 kts 238°
2026-05-05 14:52 16.26034 108.51946 39941 ft 468 kts 238°
2026-05-05 14:52 16.22411 108.46312 39941 ft 468 kts 238°
2026-05-05 14:53 16.18773 108.40676 39936 ft 469 kts 238°
2026-05-05 14:53 16.15129 108.35043 39956 ft 469 kts 238°
2026-05-05 14:54 16.11484 108.29410 39963 ft 469 kts 238°
2026-05-05 14:54 16.07301 108.24203 39966 ft 472 kts 223°
2026-05-05 14:55 16.01768 108.20507 39966 ft 477 kts 205°
2026-05-05 14:55 15.95331 108.18896 39965 ft 483 kts 189°
2026-05-05 14:56 15.88623 108.18270 39959 ft 484 kts 186°
2026-05-05 14:56 15.81919 108.17772 39955 ft 481 kts 186°
2026-05-05 14:57 15.75254 108.17246 39952 ft 480 kts 187°
2026-05-05 14:57 15.68596 108.16687 39954 ft 480 kts 187°
2026-05-05 14:58 15.61934 108.16116 39955 ft 480 kts 187°
2026-05-05 14:58 15.55279 108.15544 39973 ft 480 kts 186°
2026-05-05 14:59 15.48591 108.14973 39973 ft 481 kts 186°
2026-05-05 14:59 15.41946 108.14406 39991 ft 481 kts 186°
2026-05-05 15:00 15.36402 108.13934 39993 ft 481 kts 186°
2026-05-05 15:00 15.28600 108.13270 40012 ft 481 kts 186°
2026-05-05 15:01 15.21922 108.12702 40005 ft 481 kts 186°
2026-05-05 15:01 15.15271 108.12136 40022 ft 484 kts 186°
2026-05-05 15:02 15.08544 108.11565 40023 ft 485 kts 186°
2026-05-05 15:02 15.01823 108.10999 40034 ft 485 kts 186°
2026-05-05 15:03 14.95095 108.10438 40035 ft 485 kts 186°
2026-05-05 15:03 14.88368 108.09875 40029 ft 484 kts 186°
2026-05-05 15:04 14.81636 108.09300 40028 ft 486 kts 186°
2026-05-05 15:04 14.74887 108.08725 40025 ft 487 kts 186°
2026-05-05 15:05 14.64796 108.07866 40028 ft 487 kts 186°
2026-05-05 15:06 14.58040 108.07293 40018 ft 487 kts 186°
2026-05-05 15:06 14.51288 108.06722 40016 ft 486 kts 186°
2026-05-05 15:07 14.44540 108.06151 40012 ft 486 kts 186°
2026-05-05 15:07 14.37790 108.05580 40009 ft 486 kts 186°
2026-05-05 15:08 14.31044 108.05011 40008 ft 486 kts 186°
2026-05-05 15:08 14.24288 108.04440 40008 ft 486 kts 186°
2026-05-05 15:09 14.17584 108.03875 40002 ft 486 kts 186°
2026-05-05 15:09 14.10853 108.03307 40004 ft 486 kts 186°
2026-05-05 15:10 14.04241 108.02076 39987 ft 481 kts 200°
2026-05-05 15:10 13.98366 107.98892 39986 ft 477 kts 220°
2026-05-05 15:11 13.93927 107.93911 39985 ft 473 kts 239°
2026-05-05 15:11 13.90901 107.87912 39968 ft 472 kts 241°
2026-05-05 15:12 13.87425 107.82198 39975 ft 476 kts 238°
2026-05-05 15:12 13.83794 107.76491 39955 ft 476 kts 237°
2026-05-05 15:13 13.80141 107.70813 39958 ft 474 kts 237°
2026-05-05 15:13 13.76471 107.65135 39951 ft 477 kts 237°
2026-05-05 15:14 13.72802 107.59461 39947 ft 476 kts 237°
2026-05-05 15:14 13.69131 107.53812 39945 ft 476 kts 237°
2026-05-05 15:15 13.65292 107.48257 39939 ft 477 kts 232°
2026-05-05 15:15 13.61165 107.43011 39941 ft 476 kts 232°
2026-05-05 15:16 13.57069 107.37822 39932 ft 476 kts 232°
2026-05-05 15:16 13.52890 107.32522 39932 ft 477 kts 232°
2026-05-05 15:17 13.48723 107.27235 39929 ft 475 kts 232°
2026-05-05 15:17 13.44545 107.21947 39927 ft 476 kts 232°
2026-05-05 15:18 13.40382 107.16692 39928 ft 476 kts 232°
2026-05-05 15:18 13.36199 107.11409 39926 ft 477 kts 232°
2026-05-05 15:19 13.32037 107.06127 39922 ft 475 kts 232°
2026-05-05 15:19 13.27864 107.00834 39927 ft 478 kts 232°
2026-05-05 15:20 13.23675 106.95544 39918 ft 477 kts 231°
2026-05-05 15:20 13.19510 106.90303 39819 ft 478 kts 231°
2026-05-05 15:20 13.17412 106.87661 39585 ft 478 kts 232°
2026-05-05 15:21 13.15304 106.85009 39348 ft 480 kts 231°
2026-05-05 15:21 13.13192 106.82349 39138 ft 481 kts 231°
2026-05-05 15:21 13.11077 106.79685 38907 ft 481 kts 231°
2026-05-05 15:21 13.08970 106.77031 38442 ft 479 kts 231°
2026-05-05 15:22 13.06868 106.74384 37775 ft 478 kts 231°
2026-05-05 15:22 13.04771 106.71745 37118 ft 477 kts 231°
2026-05-05 15:22 13.02674 106.69106 36447 ft 477 kts 231°
2026-05-05 15:22 13.00574 106.66464 35759 ft 479 kts 231°
2026-05-05 15:23 12.98466 106.63811 35129 ft 478 kts 231°
2026-05-05 15:23 12.96367 106.61173 34610 ft 475 kts 231°
2026-05-05 15:23 12.94987 106.59439 34246 ft 474 kts 231°
2026-05-05 15:23 12.92911 106.56829 33726 ft 471 kts 231°
2026-05-05 15:24 12.90178 106.53396 33005 ft 467 kts 231°
2026-05-05 15:24 12.88133 106.50826 32455 ft 464 kts 231°
2026-05-05 15:24 12.86100 106.48273 31954 ft 460 kts 231°
2026-05-05 15:24 12.84083 106.45742 31439 ft 457 kts 231°
2026-05-05 15:25 12.82728 106.44042 31100 ft 455 kts 231°
2026-05-05 15:25 12.80731 106.41536 30593 ft 452 kts 231°
2026-05-05 15:25 12.78747 106.39048 30090 ft 450 kts 231°
2026-05-05 15:25 12.76770 106.36569 29529 ft 447 kts 231°
2026-05-05 15:26 12.74811 106.34114 29012 ft 443 kts 230°
2026-05-05 15:26 12.72869 106.31679 28510 ft 439 kts 230°
2026-05-05 15:26 12.70969 106.29298 28008 ft 436 kts 230°
2026-05-05 15:26 12.69035 106.26874 27528 ft 432 kts 230°
2026-05-05 15:27 12.67142 106.24503 27017 ft 428 kts 230°
2026-05-05 15:27 12.65262 106.22150 26531 ft 425 kts 230°
2026-05-05 15:27 12.63420 106.19844 26029 ft 423 kts 230°
2026-05-05 15:27 12.61567 106.17525 25545 ft 420 kts 230°
2026-05-05 15:28 12.59718 106.15211 25042 ft 418 kts 230°
2026-05-05 15:28 12.57880 106.12911 24536 ft 416 kts 230°
2026-05-05 15:28 12.56053 106.10627 24032 ft 414 kts 230°
2026-05-05 15:28 12.54229 106.08347 23530 ft 413 kts 230°
2026-05-05 15:29 12.52414 106.06080 22955 ft 411 kts 230°
2026-05-05 15:29 12.50611 106.03829 22429 ft 407 kts 230°
2026-05-05 15:29 12.48829 106.01601 21952 ft 403 kts 230°
2026-05-05 15:29 12.47060 105.99391 21440 ft 399 kts 230°
2026-05-05 15:30 12.45310 105.97206 20947 ft 395 kts 230°
2026-05-05 15:30 12.43572 105.95036 20447 ft 392 kts 230°
2026-05-05 15:30 12.41851 105.92889 19968 ft 388 kts 230°
2026-05-05 15:30 12.40146 105.90761 19475 ft 385 kts 230°
2026-05-05 15:31 12.38454 105.88650 19008 ft 383 kts 230°
2026-05-05 15:31 12.36773 105.86552 18518 ft 380 kts 230°
2026-05-05 15:31 12.35098 105.84464 18009 ft 378 kts 230°
2026-05-05 15:31 12.33439 105.82396 17503 ft 375 kts 230°
2026-05-05 15:32 12.31797 105.80348 17025 ft 371 kts 230°
2026-05-05 15:32 12.30170 105.78320 16550 ft 367 kts 230°
2026-05-05 15:32 12.28554 105.76307 16079 ft 364 kts 229°
2026-05-05 15:32 12.26955 105.74315 15629 ft 362 kts 229°
2026-05-05 15:33 12.25362 105.72331 15154 ft 360 kts 229°
2026-05-05 15:33 12.23778 105.70359 14698 ft 358 kts 229°
2026-05-05 15:33 12.22197 105.68390 14226 ft 357 kts 229°
2026-05-05 15:33 12.20624 105.66432 13787 ft 356 kts 229°
2026-05-05 15:34 12.19058 105.64482 13288 ft 354 kts 229°
2026-05-05 15:34 12.17504 105.62550 12825 ft 351 kts 229°
2026-05-05 15:34 12.15981 105.60656 12385 ft 348 kts 229°
2026-05-05 15:34 12.14426 105.58724 11925 ft 346 kts 229°
2026-05-05 15:35 12.12924 105.56856 11477 ft 344 kts 229°
2026-05-05 15:35 12.11409 105.54974 11036 ft 342 kts 229°
2026-05-05 15:35 12.09901 105.53099 10598 ft 341 kts 230°
2026-05-05 15:35 12.08408 105.51240 10267 ft 334 kts 230°
2026-05-05 15:36 12.06964 105.49446 10132 ft 320 kts 229°
2026-05-05 15:36 12.05583 105.47728 10015 ft 306 kts 229°
2026-05-05 15:36 12.04251 105.46075 9772 ft 300 kts 229°
2026-05-05 15:36 12.02915 105.44421 9401 ft 302 kts 229°
2026-05-05 15:37 12.01578 105.42764 9040 ft 302 kts 230°
2026-05-05 15:37 12.00241 105.41106 8691 ft 302 kts 230°
2026-05-05 15:37 11.98913 105.39458 8368 ft 300 kts 230°
2026-05-05 15:37 11.97589 105.37816 8023 ft 298 kts 230°
2026-05-05 15:38 11.96273 105.36184 7661 ft 298 kts 230°
2026-05-05 15:38 11.94959 105.34555 7289 ft 297 kts 231°
2026-05-05 15:38 11.93646 105.32927 6938 ft 296 kts 231°
2026-05-05 15:38 11.92342 105.31312 6600 ft 294 kts 231°
2026-05-05 15:39 11.91046 105.29704 6253 ft 292 kts 231°
2026-05-05 15:39 11.89759 105.28112 5907 ft 291 kts 231°
2026-05-05 15:39 11.88470 105.26512 5581 ft 293 kts 231°
2026-05-05 15:39 11.87176 105.24910 5227 ft 291 kts 231°
2026-05-05 15:40 11.85895 105.23327 4924 ft 287 kts 231°
2026-05-05 15:40 11.84684 105.21709 4803 ft 285 kts 234°
2026-05-05 15:40 11.83519 105.20068 4671 ft 285 kts 235°
2026-05-05 15:40 11.82355 105.18435 4529 ft 284 kts 234°
2026-05-05 15:41 11.81191 105.16816 4392 ft 284 kts 234°
2026-05-05 15:41 11.80022 105.15196 4249 ft 282 kts 234°
2026-05-05 15:41 11.78857 105.13583 4119 ft 284 kts 234°
2026-05-05 15:41 11.77687 105.11972 3983 ft 281 kts 234°
2026-05-05 15:42 11.76530 105.10378 3823 ft 278 kts 233°
2026-05-05 15:42 11.75383 105.08784 3706 ft 277 kts 233°
2026-05-05 15:42 11.74230 105.07206 3567 ft 276 kts 233°
2026-05-05 15:42 11.73083 105.05638 3419 ft 276 kts 233°
2026-05-05 15:43 11.71944 105.04072 3294 ft 274 kts 233°
2026-05-05 15:43 11.70827 105.02541 3167 ft 263 kts 233°
2026-05-05 15:43 11.69761 105.01076 3034 ft 250 kts 233°
2026-05-05 15:43 11.68759 104.99697 2908 ft 231 kts 233°
2026-05-05 15:44 11.67883 104.98422 2809 ft 207 kts 237°
2026-05-05 15:44 11.67007 104.97351 2745 ft 195 kts 224°
2026-05-05 15:44 11.66068 104.96377 2648 ft 191 kts 226°
2026-05-05 15:44 11.65165 104.95384 2544 ft 190 kts 226°
2026-05-05 15:45 11.64250 104.94406 2401 ft 190 kts 223°
2026-05-05 15:45 11.63334 104.93456 2174 ft 187 kts 223°
2026-05-05 15:45 11.62439 104.92518 1889 ft 181 kts 224°
2026-05-05 15:45 11.61596 104.91617 1644 ft 168 kts 224°
2026-05-05 15:46 11.60793 104.90790 1435 ft 162 kts 223°
2026-05-05 15:46 11.60015 104.89986 1232 ft 153 kts 224°
2026-05-05 15:46 11.59301 104.89236 1047 ft 141 kts 224°
2026-05-05 15:46 11.58629 104.88539 900 ft 136 kts 223°
2026-05-05 15:47 11.57959 104.87860 758 ft 137 kts 222°
2026-05-05 15:47 11.57518 104.87402 644 ft 136 kts 224°
2026-05-05 15:47 11.56639 104.86476 400 ft 135 kts 224°
2026-05-05 15:47 11.55985 104.85793 227 ft 135 kts 225°
2026-05-05 15:48 11.55326 104.85111 65 ft 135 kts 224°
2026-05-05 15:48 11.54747 104.84511 59 ft 99 kts 226°
2026-05-05 15:48 11.54362 104.84110 61 ft 59 kts 225°
2026-05-05 15:48 11.54175 104.83916 65 ft 23 kts 225°
2026-05-05 15:49 11.54126 104.83831 63 ft 12 kts 284°
2026-05-05 15:49 11.54188 104.83762 59 ft 14 kts 321°
2026-05-05 15:49 11.54277 104.83770 58 ft 14 kts 41°
2026-05-05 15:49 11.54353 104.83848 61 ft 17 kts 45°
2026-05-05 15:50 11.54439 104.83937 58 ft 19 kts 45°
2026-05-05 15:50 11.54534 104.84037 63 ft 20 kts 44°
2026-05-05 15:50 11.54637 104.84145 62 ft 22 kts 46°
2026-05-05 15:50 11.54748 104.84260 59 ft 24 kts 45°
2026-05-05 15:51 11.54869 104.84386 59 ft 26 kts 46°
2026-05-05 15:51 11.54983 104.84504 63 ft 21 kts 45°
2026-05-05 15:51 11.55050 104.84563 68 ft 8 kts 15°
2026-05-05 15:51 11.55125 104.84536 63 ft 12 kts 332°
2026-05-05 15:52 11.55169 104.84512 68 ft 3 kts 331°
2026-05-05 15:52 11.55175 104.84508 59 ft 0 kts 331°